Regional Weather Roundup
Issued by NWS Boston, MA

Current Version | Previous Version | Text Only | Print | Product List | Glossary Off
Versions: 1 2 3 4 5 6 7 8 9 10 11 12 13 14 15 16 17 18 19 20 21 22 23 24 25 26 27 28 29 30 31 32 33 34 35 36 37 38 39 40 41 42 43 44 45 46 47 48 49 50
000 ASUS41 KBOX 200010 RWRBOX REGIONAL WEATHER ROUNDUP NATIONAL WEATHER SERVICE TAUNTON MA 700 PM EST MON FEB 19 2018 NOTE: "FAIR" INDICATES FEW OR NO CLOUDS BELOW 12,000 FEET WITH NO SIGNIFICANT WEATHER AND/OR OBSTRUCTIONS TO VISIBILITY. MAZALL-200100- EASTERN MASSACHUSETTS CITY SKY/WX TMP DP RH WIND PRES REMARKS BOSTON LGT RAIN 45 42 89 S9 30.34S 6HR MIN TEMP: 45; 6HR MAX TEMP: 50; 6HR PCP: TRACE; BEVERLY LGT RAIN 46 40 79 S6 30.32F LAWRENCE LGT RAIN 48 38 68 SW10 30.33F BEDFORD CLOUDY 45 40 82 S9 30.31F BLUE HILL N/A 43 42 97 S22G29 30.31F NORWOOD CLOUDY 47 43 86 S10 30.34F MARSHFIELD CLOUDY 46 45 93 SW12 30.35F PLYMOUTH LGT RAIN 46 43 89 S8 30.36F TAUNTON LGT RAIN 47 44 90 VRB5 30.36F NEW BEDFORD LGT RAIN 45 45 100 S8 30.37F $$ MAZALL-200100- CAPE COD AND THE ISLANDS CITY SKY/WX TMP DP RH WIND PRES REMARKS FALMOUTH DRIZZLE 46 43 87 S9 30.39 HYANNIS CLOUDY 45 43 93 S15 30.38F CHATHAM CLOUDY 46 43 89 SW9G22 30.40F PROVINCETOWN LGT RAIN 44 42 93 S13 30.38F NANTUCKET CLOUDY 45 43 93 S12 30.43F MARTHAS VNYRD LGT RAIN N/A N/A N/A SW10 30.40F $$ MAZALL-200100- CENTRAL AND WESTERN MASSACHUSETTS CITY SKY/WX TMP DP RH WIND PRES REMARKS WORCESTER LGT RAIN 41 39 93 SW16 30.29F 6HR MIN TEMP: 40; 6HR MAX TEMP: 44; 6HR PCP: 0.04; FITCHBURG LGT RAIN 43 41 93 S5 30.31F ORANGE LGT RAIN 40 39 97 S6 30.30F SPRINGFIELD LGT RAIN 43 41 93 S9 30.30 WESTFIELD LGT RAIN 41 41 100 S8 30.31F NORTH ADAMS LGT RAIN 41 37 86 VRB7 30.27R PITTSFIELD LGT RAIN 41 36 82 S10G18 30.25F $$ RIZALL-200100- RHODE ISLAND CITY SKY/WX TMP DP RH WIND PRES REMARKS PROVIDENCE LGT RAIN 46 45 96 S8 30.37F 6HR MIN TEMP: 45; 6HR MAX TEMP: 51; 6HR PCP: 0.02; NEWPORT LGT RAIN 44 43 96 S7 30.37F BLOCK ISLAND LGT RAIN 46 44 93 S14 30.39F SMITHFIELD LGT RAIN 45 43 93 SW8 30.34F WESTERLY CLOUDY 47 45 93 SW10 30.39S $$ CTZALL-200100- CONNECTICUT CITY SKY/WX TMP DP RH WIND PRES REMARKS BRADLEY INTL RAIN 43 42 97 S9 30.32F 6HR MIN TEMP: 43; 6HR MAX TEMP: 46; 6HR PCP: 0.07; HARTFORD LGT RAIN 45 43 93 S6 30.33F BRIDGEPORT CLOUDY 43 41 93 SW6 30.35F DANBURY LGT RAIN N/A N/A N/A VRB7 30.33F GROTON CLOUDY 43 40 89 S6 30.37F NEW HAVEN CLOUDY 43 40 89 S6 30.35F CHESTER LGT RAIN 46 45 93 S9 30.34F MERIDEN LGT RAIN 43 42 97 S6 30.34F FOG WILLIMANTIC LGT RAIN 46 43 89 S5 30.35F OXFORD LGT RAIN 43 43 100 VRB7 30.33F VSB 1 $$ MEZ002-015-021-024-NHZ003-005-008-011-012-014-VTZ005-008-200100- NORTHERN NEW ENGLAND CITY SKY/WX TMP DP RH WIND PRES REMARKS PORTLAND ME CLOUDY 42 38 85 S9 30.30F 6HR MIN TEMP: 40; 6HR MAX TEMP: 42; BANGOR ME CLOUDY 38 35 89 S8 30.30F CONCORD NH LGT RAIN 40 34 79 S7 30.28F MANCHESTER NH LGT RAIN 44 36 73 S6 30.29F NASHUA NH LGT RAIN 44 38 79 VRB3 30.30F PORTSMOUTH NH LGT RAIN 42 35 76 S6 30.29F JAFFREY NH LGT RAIN 41 40 96 SW9 30.27F KEENE NH LGT RAIN 39 36 89 S8 30.29F BURLINGTON VT CLOUDY 41 33 73 S24G32 30.18S WCI 31 MT. WASHINGTON FOG 32 32 100 W55G72 N/A VSB 0 WCI 14 $$ NYZ052-076-200100- EASTERN NEW YORK CITY SKY/WX TMP DP RH WIND PRES REMARKS ALBANY LGT RAIN 40 36 86 S17G26 30.27R WCI 31 6HR MIN TEMP: 40; 6HR MAX TEMP: 44; 6HR PCP: 0.09; NEW YORK CITY CLOUDY 48 44 86 S6 30.34F 6HR MIN TEMP: 47; 6HR MAX TEMP: 49; 6HR PCP: 0.01; $$ ANZALL-200100- MARINE OBSERVATIONS STATION/POSITION TIME TEMP WIND PRES VSBY WAVE AIR SEA DIR/SP/G HT/PER (UTC) (F) (DEG/KT/KT) (MB) (MI) (FT/S) BOSTON BUOY 2350 43 39 160/ 10/ 12 1026.9F 4/11 BUZZARDS BAY 2300 43 180/ 18/ 18 1029.5F NANTUCKET SOUND 2250 42 39 200/ 16/ 17 1029.9 2/ 3 MASS BAY-STELLWA 2304 41 39 1026.8F 6/11 ISLE OF SHOALS 0000 44 190/ 22/ 23 1026.1F S OF BLOCK IS 2313 40 N/A 3/11 $$ ......................KEY......................... SKY/WX - SKY CONDITION/PRESENT WEATHER TMP - TEMPERATURE IN FAHRENHEIT DWPT - DEWPOINT IN FAHRENHEIT RH - RELATIVE HUMIDITY IN PERCENT WIND - DIRECTION AND SPEED IN MPH PRES - MEAN SEA LEVEL PRESSURE IN INCHES OF HG WCI - WIND CHILL INDEX VSB - VISIBILITY IN MILES HX - HEAT INDEX TC - TEMPERATURE IN CELSIUS VRB - VARIABLE WIND DIRECTION N/A - NOT AVAILABLE

USA.gov is the U.S. government's official web portal to all federal, state and local government web resources and services.